www.pogodaiklimat.ru

Погода и климат >> Архив погоды >> Россия >> Нижегородская область >> Лукоянов


ПОГОДА в Лукоянове

  • Прогноз погоды в Лукоянове
  • Монитор погоды в Лукоянове
  • Климат города

АРХИВ ПОГОДЫ в Лукоянове

Время (UTC), дата Ветер
(напр.,м/с)
 
Видим.   Явления Облачность Т
(С)
Тd
(С)
f
(%)
Тe
(С)
Тes
(С)
Комфортность P
(гПа)
Po
(гПа)
Тmin
(С)
Tmax
(С)
R
(мм)
R24
(мм)
S
(см)
09 14.06 СЗ 2-4
{6}
20 км 10/10 600 м
[Sc]
+10.9 +5.8 71 +10 +10 1015.4 989.1
12 14.06 СЗ 2-4
{6}
20 км 10/10 1000 м
[Sc]
+12.0 +5.6 65 +11 +11 1016.3 990.1
15 14.06 С 1-2
{5}
20 км 8/3 1000 м
[Sc Ci fib]
+12.7 +4.6 58 +13 +15 1016.5 990.4 +13.2
18 14.06 З 1-2
{3}
10 км 3/0
[Ci fib]
+9.3 +5.3 76 +9 +9 1017.1 990.6
21 14.06 З 1-2
{2}
10 км 3/0
[Ci fib]
+7.6 +5.3 85 +7 +7 1017.6 991.1
00 15.06 С 2-3
{4}
10 км 10/0
[Cs]
+8.0 +4.3 77 +6 +6 1018.8 992.2
03 15.06 С 2-4
{5}
20 км 10/0
[Ci sp]
+8.3 +5.0 80 +6 +8 1020.1 993.4 +7.0
06 15.06 СВ 3-7
{8}
20 км 8/0
[Ci fib]
+13.4 -0.7 38 +13 +20 1020.1 993.9
09 15.06 С 3-6
{9}
20 км 3/3 1000 м
[Cu med, cong]
+15.0 +0.4 37 +15 +24 1019.9 993.9
12 15.06 С 3-5
{8}
20 км 3/0
[Ci fib]
+16.6 +1.9 37 +16 +25 1019.5 993.6
15 15.06 С 2-5
{8}
20 км 3/0
[Ci fib]
+16.2 +1.1 36 +16 +19 1019.3 993.4 +17.0
18 15.06 С 1-1
{6}
10 км ясно +10.8 +3.6 61 +11 +11 1019.5 993.2
21 15.06 З 2-2
{2}
10 км ясно +8.1 +3.4 72 +6 +6 1020.3 993.7
00 16.06 З 1-2
{3}
10 км 10/0
[Ci fib]
+5.9 +4.0 88 +5 +5 1020.9 994.1
03 16.06 З 1-2
{3}
20 км 10/0
[Ci fib]
+8.9 +5.6 80 +8 +11 1021.2 994.7 +5.7
06 16.06 СЗ 2-4
{4}
20 км 3/0
[Ci fib]
+17.2 +6.2 48 +18 +28 1020.7 994.9
09 16.06 З 1-3
{6}
20 км 8/3 600 м
[Cb cap Ci fib]
+18.6 +6.5 45 +20 +31 1019.8 994.1
12 16.06 С 3-6
{7}
20 км 5/5 600 м
[Cb cap]
+20.4 +4.8 36 +21 +26 комфорт 1019.2 993.6
15 16.06 С 2-6
{8}
20 км ясно +20.0 +3.0 32 +21 +23 комфорт 1018.8 993.2 +20.9
18 16.06 С 1-2
{6}
10 км ясно +13.8 +4.8 55 +14 +14 1019.7 993.6
21 16.06 З 1-2
{2}
10 км ясно +10.8 +5.6 70 +11 +11 1020.2 993.8
00 17.06 З 2-3
{3}
10 км ясно +8.0 +4.8 80 +6 +6 1020.7 994.0
03 17.06 З 2-4
{4}
20 км ясно +10.4 +6.5 77 +9 +11 1020.6 994.2 +7.2
06 17.06 СЗ 2-4
{5}
20 км 8/0
[Ci fib]
+20.1 +7.7 45 +22 +31 комфорт 1019.3 993.7
09 17.06 С 3-7
{8}
20 км 5/0
[Ci fib]
+23.2 +5.3 31 +23 +35 комфорт 1018.0 992.7
12 17.06 С 3-9
{10}
20 км 5/3 1000 м
[Cu hum Ci fib]
+24.7 +6.7 32 +25 +31 комфорт 1016.5 991.5
15 17.06 СЗ 2-5
{7}
20 км 3/3 1000 м
[Cu hum Ci fib]
+24.5 +8.0 35 +25 +27 комфорт 1015.3 990.3 +25.1
18 17.06 СЗ 2-3
{5}
10 км 3/3 1000 м
[Cu med, cong]
+20.0 +10.4 54 +22 +22 комфорт 1015.9 990.4
21 17.06 СЗ 1-2
{3}
10 км ясно +16.4 +11.0 70 +17 +17 1015.9 990.2
00 18.06 З 2-3
{3}
10 км ясно +13.0 +10.3 84 +12 +12 1016.3 990.2
03 18.06 З 2-3
{4}
20 км 3/3 1000 м
[Cu med, cong]
+14.8 +11.1 78 +15 +16 1016.2 990.2 +12.6
06 18.06 СЗ 1-3
{4}
20 км ясно +23.8 +14.3 55 +26 +39 жарко 1014.8 989.8
09 18.06 СЗ 3-6
{8}
20 км 6/6 1000 м
[Cu med, cong]
+26.2 +9.5 35 +27 +32 жарко 1014.2 989.3
12 18.06 С 3-6
{6}
20 км 5/5 1000 м
[Cu med, cong]
+27.2 +8.8 31 +27 +32 жарко 1013.5 988.7
15 18.06 С 2-4
{6}
20 км 3/3 1000 м
[Cu hum Ci fib]
+25.0 +8.2 34 +25 +27 комфорт 1012.9 987.9 +27.4
18 18.06 СЗ 1-3
{4}
10 км ясно +20.6 +12.4 59 +24 +24 комфорт 1013.4 988.1
21 18.06 З 1-2
{3}
10 км ясно +15.6 +12.7 83 +16 +16 1013.9 988.1
00 19.06 З 2-3
{4}
10 км ясно +13.4 +12.8 96 +13 +13 1014.3 988.3
03 19.06 З 2-3
{3}
10 км 3/0
[Ac trans]
+16.4 +13.8 85 +17 +18 1013.7 988.0 +13.3
06 19.06 З 2-5
{6}
20 км ясно +23.6 +15.3 60 +27 +37 жарко 1012.9 987.9
09 19.06 ЮЗ 3-6
{7}
20 км 8/8 600 м
[Cb cap]
+28.4 +9.9 32 +29 +31 жарко 1011.5 986.9
12 19.06 ЮЗ 2-4
{6}
20 км в посл. час гроза {ливн. осадки} 10/3 600 м
[Cb cap Ac und Ci fib]
+23.6 +14.5 57 +26 +30 жарко 1011.4 986.5
15 19.06 Ю 2-4
{6}
20 км 3/0
[Ci fib]
+26.2 +13.7 46 +28 +31 жарко 1009.2 984.5 +28.4 0.3
18 19.06 З 2-3
{4}
10 км 3/0
[Ac trans]
+20.9 +11.1 53 +24 +24 комфорт 1008.9 983.8
21 19.06 З 2-3
{4}
10 км 8/0
[Ac und]
+18.9 +13.0 69 +20 +20 1008.1 982.9
00 20.06 ЮЗ 2-4
{5}
10 км 10/0
[Ac trans Ci fib]
+16.4 +13.5 83 +17 +17 1007.1 981.6
03 20.06 ЮЗ 2-5
{5}
10 км 10/3 600 м
[Cb cap Ac und]
+17.7 +13.6 77 +18 +19 1005.5 980.1 +16.1
06 20.06 ЮЗ 2-4
{9}
10 км в посл. час ливневой дождь 10/4 600 м
[Cb cap Ac und]
+17.2 +14.8 86 +18 +19 1004.8 979.4
09 20.06 З 7-12
{14}
20 км 8/3 600 м
[Cb cap Ci fib]
+19.6 +13.5 68 +21 +23 комфорт 1004.4 979.2
12 20.06 З 6-13
{15}
20 км 3/3 1000 м
[Cu med, cong]
+21.8 +4.5 32 +22 +25 комфорт 1005.0 980.0
15 20.06 З 5-10
{13}
20 км 3/3 1000 м
[Cu med, cong]
+21.0 +3.8 32 +22 +22 комфорт 1005.7 980.6 +21.8 1
18 20.06 З 2-3
{11}
10 км 3/3 1000 м
[Cu med, cong]
+15.8 +5.9 52 +16 +16 1007.1 981.5
21 20.06 З 2-4
{6}
10 км ясно +13.4 +6.8 64 +13 +13 1007.9 982.1
00 21.06 З 3-5
{6}
10 км ясно +10.4 +6.1 75 +8 +8 1008.7 982.5
03 21.06 З 4-6
{7}
20 км ясно +13.2 +7.0 66 +12 +13 1009.3 983.4 +9.8

 

Местоположение метеостанции Лукоянов (Нижегородская область, Россия): широта 55.03 долгота 44.50 высота над уровнем моря 219 м.

В архиве по умолчанию представлена погода в Лукоянове за последнюю неделю. Архивные данные за месяц целиком и за предыдущие месяцы, начиная с января 2011 года, Вы можете получить, выбрав интересующий диапазон дат из раскрывающегося списка и нажав кнопку "Ввод!".


*Определитесь, кто Вы:
робот инопланетянин человек

Внимание! Время в таблицах - всемирное. Для получения местного времени необходимо прибавить поправку, которая в Лукоянове равна 3 ч.

Смотрите также архив погоды в соседних городах и на ближайших метеорологических станциях:

Погода в Большом Болдино (Нижегородская область, Россия) (52 км)
Погода в Арзамасе (Нижегородская область, Россия) (59 км)
Погода в Краснослободске (Мордовия, Россия) (82 км)
Погода в Сергаче (Нижегородская область, Россия) (84 км)
Погода в Дальнем Константиново (Нижегородская область, Россия) (90 км)
Погода в Темникове (Мордовия, Россия) (93 км)
Погода в Саранске (Мордовия, Россия) (111 км)
Погода в Лысково (Нижегородская область, Россия) (114 км)
Погода в Порецком (Чувашия, Россия) (118 км)
Погода в Инсаре (Мордовия, Россия) (129 км)

Пояснения к столбцам:

Ветер - указаны скорость ветра в м/с - средняя за 10 мин, порывы в срок и между сроками (в фигурных скобках) и направление, откуда дует ветер: С - северный, СВ - северо-восточный, В - восточный, ЮВ - юго-восточный, Ю - южный, ЮЗ - юго-западный, З - западный, СЗ - северо-западный.
Видимость - горизонтальная дальность видимости в метрах или километрах. При видимости от 1 до 10 км при отсутствии осадков обычно наблюдается дымка, при ухудшении видимости до 1 км и менее - туман. В сухую погоду видимость может ухудшаться дымом, пылью или мглою.
Явления - указаны атмосферные явления, наблюдавшиеся в срок или в последний час перед сроком; фигурными скобками обозначены явления, наблюдавшиеся между сроками (за 1-3 часа до срока); квадратными скобками обозначены град или гололедные отложения с указанием их диаметра в мм.
Облачность - указаны через наклонную черту общая и нижняя облачность в баллах и высота нижней границы облаков в метрах; квадратными скобками обозначены формы облаков: Ci - перистые, Cs - перисто-слоистые, Cc - перисто-кучевые, Ac - высококучевые, As - высокослоистые, Sc - слоисто-кучевые, Ns - слоисто-дождевые, Cu - кучевые, Cb - кучево-дождевые. Подробнее классификацию облаков см. в Атласе облаков (PDF).
T - Температура воздуха - температура, измеренная на высоте 2 м над землей.
Td - Температура точки росы - температура, при понижении до которой содержащийся в воздухе водяной пар достигнет насыщения.
f - Относительная влажность воздуха - влажноcть воздуха, измеренная на высоте 2 м над землей.
Te - Эффективная температура - температура, которую ощущает одетый по сезону человек в тени. Характеристика душности погоды. При расчете учитывается влияние влажности воздуха и скорости ветра на теплоощущения человека.
Tes - Эффективная температура на солнце - температура, которую ощущает человек, с поправкой на солнечный нагрев. Характеристика знойности погоды. Зависит от высоты солнца над горизонтом, облачности и скорости ветра. Ночью, в пасмурную погоду, а также при ветре 12 м/с и более поправка равна нулю.
P - Атмосферное давление - приведенное к уровню моря атмосферное давление.
Po - Атмосферное давление - измеренное на уровне метеостанции атмосферное давление.
Tmin - Минимальная температура - минимум температуры воздуха на высоте 2 м над землей.
Tmax - Максимальная температура - максимум температуры воздуха на высоте 2 м над землей.
R - Количество осадков - Количество выпавших осадков за период времени, мм. При наведении курсора мыши на число - период времени, за который выпало указанное количество осадков.
R24 - Количество осадков - Количество выпавших осадков за 24 часа, мм.
S - Снежный покров - Высота снежного покрова, см. При наведении курсора мыши на число - состояние снежного покрова и степень покрытия местности в баллах.